Simultaneous Nadir Overpasses (SNOs) Predictions

Prediction of SNOs between GOES-15 and LANDSAT-8 Satellite Orbit:

Table of predicted SNOs for the next 14.0 days since TLE Epoch: 11/11/2023
Index Date Time (GOES-15) GOES-15 Lat,Lon LANDSAT-8 Lat,Lon Distance(km) Time Diff (sec)
1 11/11/2023 06:05:28 -0.26, 61.71 -0.34, 62.04 38.35 80
2 11/13/2023 05:53:18 -0.26, 61.71 -0.94, 65.00 373.80 80
3 11/13/2023 18:14:41 0.24, 61.80 -0.20, 59.81 226.78 80
4 11/15/2023 17:59:51 0.24, 61.82 0.42, 62.77 107.54 80
5 11/16/2023 06:21:07 -0.23, 61.73 0.67, 57.61 469.86 80
6 11/17/2023 17:47:42 0.24, 61.84 1.06, 65.72 441.29 80
7 11/18/2023 06:08:57 -0.22, 61.75 0.02, 60.56 135.92 80
8 11/20/2023 05:59:26 -0.22, 61.77 -0.58, 63.51 197.82 80
9 11/20/2023 18:20:50 0.21, 61.86 -0.54, 58.33 401.12 80
10 11/22/2023 18:08:39 0.21, 61.88 0.09, 61.28 67.53 80
11 11/24/2023 17:53:47 0.21, 61.91 0.68, 64.25 265.85 80
